timestamp,wind_dir_avg,wind_spd_avg,wind_spd_max_dir,wind_spd_gust,battery_voltage,lat,long
2023-01-14 00:04:00+00:00,173.0,11.66,170.0,13.41,12.41,47.59359,-54.27349
2023-01-14 00:14:00+00:00,174.0,11.19,174.0,12.62,12.33,47.59359,-54.27349
2023-01-14 00:24:00+00:00,173.0,10.59,169.0,11.95,12.33,47.59359,-54.27349
2023-01-14 00:34:00+00:00,171.0,11.6,171.0,13.8,12.33,47.59359,-54.27349
2023-01-14 00:44:00+00:00,173.0,12.59,171.0,14.31,12.33,47.59359,-54.27349
2023-01-14 00:54:00+00:00,180.0,13.72,194.0,16.63,12.33,47.59359,-54.27349
2023-01-14 01:04:00+00:00,176.0,13.37,179.0,15.1,12.33,47.59359,-54.27349
2023-01-14 01:14:00+00:00,173.0,15.24,170.0,16.21,12.33,47.59359,-54.27349
2023-01-14 01:24:00+00:00,175.0,13.9,173.0,17.28,12.33,47.59359,-54.27349
2023-01-14 01:34:00+00:00,189.0,16.9,194.0,18.75,12.33,47.59359,-54.27349
2023-01-14 01:44:00+00:00,197.0,16.77,202.0,19.48,12.33,47.59359,-54.27349
2023-01-14 01:54:00+00:00,188.0,15.94,190.0,18.99,12.33,47.59359,-54.27349
2023-01-14 02:04:00+00:00,199.0,19.01,199.0,22.54,12.33,47.59359,-54.27349
2023-01-14 02:14:00+00:00,203.0,17.93,205.0,20.85,12.33,47.59359,-54.27349
2023-01-14 02:24:00+00:00,197.0,18.24,201.0,21.06,12.33,47.59359,-54.27349
2023-01-14 02:34:00+00:00,198.0,20.28,199.0,23.85,12.33,47.59359,-54.27349
2023-01-14 02:44:00+00:00,199.0,20.14,199.0,23.04,12.33,47.59359,-54.27349
2023-01-14 02:54:00+00:00,201.0,20.47,200.0,23.45,12.33,47.59359,-54.27349
2023-01-14 03:04:00+00:00,203.0,18.7,203.0,21.98,12.33,47.59359,-54.27349
2023-01-14 03:14:00+00:00,202.0,20.57,199.0,24.53,12.33,47.59359,-54.27349
2023-01-14 03:24:00+00:00,202.0,19.58,202.0,22.57,12.33,47.59359,-54.27349
2023-01-14 03:34:00+00:00,201.0,16.96,200.0,21.78,12.33,47.59359,-54.27349
2023-01-14 03:44:00+00:00,206.0,21.47,215.0,24.95,12.33,47.59359,-54.27349
2023-01-14 03:54:00+00:00,205.0,18.78,204.0,21.5,12.33,47.59359,-54.27349
2023-01-14 04:04:00+00:00,207.0,16.94,210.0,19.52,12.33,47.59359,-54.27349
2023-01-14 04:14:01+00:00,215.0,18.86,220.0,23.27,12.33,47.59359,-54.27349
2023-01-14 04:24:01+00:00,211.0,16.94,217.0,21.96,12.33,47.59359,-54.27349
2023-01-14 04:34:01+00:00,214.0,16.97,215.0,19.86,12.33,47.59359,-54.27349
2023-01-14 04:44:01+00:00,215.0,16.0,224.0,20.5,12.33,47.59359,-54.27349
2023-01-14 04:54:01+00:00,232.0,13.58,236.0,17.65,12.33,47.59359,-54.27349
2023-01-14 05:04:01+00:00,219.0,14.85,225.0,19.32,12.33,47.59359,-54.27349
2023-01-14 05:14:00+00:00,222.0,12.7,225.0,16.18,12.33,47.59359,-54.27349
2023-01-14 05:24:00+00:00,215.0,16.13,214.0,19.88,12.33,47.59359,-54.27349
2023-01-14 05:34:00+00:00,213.0,16.95,212.0,20.08,12.33,47.59359,-54.27349
2023-01-14 05:44:00+00:00,213.0,16.86,211.0,19.55,12.33,47.59359,-54.27349
2023-01-14 05:54:00+00:00,214.0,16.1,210.0,18.43,12.33,47.59359,-54.27349
2023-01-14 06:04:00+00:00,215.0,14.73,215.0,18.45,12.33,47.59359,-54.27349
2023-01-14 06:14:01+00:00,213.0,16.03,206.0,19.93,12.25,47.59359,-54.27349
2023-01-14 06:24:01+00:00,215.0,19.64,219.0,23.03,12.25,47.59359,-54.27349
2023-01-14 06:34:01+00:00,214.0,17.85,217.0,21.57,12.25,47.59359,-54.27349
2023-01-14 06:44:01+00:00,215.0,19.2,218.0,22.22,12.25,47.59359,-54.27349
2023-01-14 06:54:01+00:00,215.0,16.37,213.0,19.97,12.25,47.59359,-54.27349
2023-01-14 07:04:01+00:00,227.0,15.55,221.0,21.54,12.25,47.59359,-54.27349
2023-01-14 07:14:00+00:00,225.0,13.64,230.0,16.86,12.25,47.59359,-54.27349
2023-01-14 07:24:00+00:00,229.0,13.19,233.0,18.08,12.25,47.59359,-54.27349
2023-01-14 07:34:00+00:00,229.0,13.99,235.0,16.96,12.25,47.59359,-54.27349
2023-01-14 07:44:00+00:00,222.0,13.39,221.0,15.97,12.25,47.59359,-54.27349
2023-01-14 07:54:00+00:00,220.0,13.47,219.0,16.39,12.25,47.59359,-54.27349
2023-01-14 08:04:00+00:00,220.0,13.59,227.0,16.81,12.25,47.59359,-54.27349
2023-01-14 08:14:01+00:00,217.0,15.59,216.0,18.03,12.25,47.59359,-54.27349
2023-01-14 08:24:01+00:00,216.0,16.09,217.0,18.98,12.25,47.59359,-54.27349
2023-01-14 08:34:01+00:00,218.0,15.58,220.0,18.41,12.25,47.59359,-54.27349
2023-01-14 08:44:01+00:00,217.0,17.26,214.0,21.18,12.25,47.59359,-54.27349
2023-01-14 08:54:01+00:00,218.0,15.88,220.0,18.43,12.25,47.59359,-54.27349
2023-01-14 09:04:01+00:00,215.0,15.43,203.0,17.83,12.25,47.59359,-54.27349
2023-01-14 09:14:00+00:00,214.0,15.86,221.0,18.68,12.25,47.59359,-54.27349
2023-01-14 09:24:00+00:00,213.0,13.97,215.0,16.64,12.25,47.59359,-54.27349
2023-01-14 09:34:00+00:00,224.0,13.46,229.0,16.82,12.25,47.59359,-54.27349
2023-01-14 09:44:00+00:00,218.0,12.17,214.0,16.85,12.25,47.59359,-54.27349
2023-01-14 09:54:00+00:00,223.0,15.27,212.0,20.88,12.25,47.59359,-54.27349
2023-01-14 10:04:00+00:00,221.0,13.87,222.0,17.37,12.25,47.59359,-54.27349
2023-01-14 10:14:00+00:00,215.0,11.34,214.0,13.2,12.17,47.59359,-54.27349
2023-01-14 10:24:00+00:00,216.0,13.89,225.0,17.92,12.17,47.59359,-54.27349
2023-01-14 10:34:00+00:00,218.0,15.74,222.0,19.31,12.17,47.59359,-54.27349
2023-01-14 10:44:00+00:00,220.0,15.86,225.0,18.89,12.17,47.59359,-54.27349
2023-01-14 10:54:00+00:00,218.0,14.39,224.0,18.38,12.17,47.59359,-54.27349
2023-01-14 11:04:00+00:00,215.0,13.79,223.0,18.51,12.17,47.59359,-54.27349
2023-01-14 11:14:00+00:00,215.0,13.47,223.0,16.51,12.17,47.59359,-54.27349
2023-01-14 11:24:00+00:00,213.0,13.29,222.0,19.31,12.17,47.59359,-54.27349
2023-01-14 11:34:00+00:00,224.0,16.19,219.0,18.2,12.17,47.59359,-54.27349
2023-01-14 11:44:00+00:00,226.0,17.5,245.0,22.02,12.17,47.59359,-54.27349
2023-01-14 11:54:00+00:00,220.0,13.91,226.0,17.99,12.17,47.59359,-54.27349
2023-01-14 12:04:00+00:00,217.0,14.18,227.0,17.93,12.17,47.59359,-54.27349
2023-01-14 12:14:00+00:00,219.0,13.88,221.0,18.69,12.17,47.59359,-54.27349
2023-01-14 12:24:00+00:00,221.0,13.88,224.0,18.01,12.17,47.59359,-54.27349
2023-01-14 12:34:00+00:00,221.0,14.86,221.0,18.22,12.17,47.59359,-54.27349
2023-01-14 12:44:00+00:00,214.0,13.39,221.0,18.16,12.17,47.59359,-54.27349
2023-01-14 12:54:00+00:00,199.0,11.1,200.0,13.35,12.17,47.59359,-54.27349
2023-01-14 13:04:00+00:00,205.0,10.49,214.0,12.33,12.17,47.59359,-54.27349
2023-01-14 13:14:00+00:00,202.0,10.94,197.0,13.98,12.25,47.59359,-54.27349
2023-01-14 13:24:00+00:00,202.0,11.17,205.0,13.73,12.25,47.59359,-54.27349
2023-01-14 13:34:00+00:00,203.0,11.1,198.0,13.09,12.25,47.59359,-54.27349
2023-01-14 13:44:00+00:00,203.0,12.2,199.0,15.46,12.25,47.59359,-54.27349
2023-01-14 13:54:00+00:00,207.0,11.16,212.0,13.46,12.25,47.59359,-54.27349
2023-01-14 14:04:00+00:00,201.0,11.09,198.0,12.19,12.25,47.59359,-54.27349
2023-01-14 14:14:00+00:00,204.0,10.03,203.0,11.12,12.33,47.59359,-54.27349
2023-01-14 14:24:00+00:00,198.0,11.73,199.0,13.36,12.33,47.59359,-54.27349
2023-01-14 14:34:00+00:00,203.0,11.37,199.0,12.44,12.33,47.59359,-54.27349
2023-01-14 14:44:00+00:00,206.0,11.2,216.0,15.46,12.33,47.59359,-54.27349
2023-01-14 14:54:00+00:00,209.0,10.56,215.0,12.34,12.33,47.59359,-54.27349
2023-01-14 15:04:00+00:00,211.0,10.74,214.0,12.0,12.33,47.59359,-54.27349
2023-01-14 15:14:00+00:00,208.0,11.15,212.0,13.15,12.41,47.59359,-54.27349
2023-01-14 15:24:00+00:00,201.0,10.66,203.0,12.21,12.41,47.59359,-54.27349
2023-01-14 15:34:00+00:00,202.0,8.91,202.0,10.0,12.41,47.59359,-54.27349
2023-01-14 15:44:00+00:00,206.0,9.31,209.0,10.49,12.41,47.59359,-54.27349
2023-01-14 15:54:00+00:00,207.0,8.9,203.0,10.63,12.41,47.59359,-54.27349
2023-01-14 16:04:00+00:00,208.0,9.18,200.0,10.56,12.41,47.59359,-54.27349
2023-01-14 16:14:00+00:00,204.0,10.63,215.0,12.68,12.41,47.59359,-54.27349
2023-01-14 16:24:00+00:00,202.0,10.57,209.0,12.29,12.41,47.59359,-54.27349
2023-01-14 16:34:00+00:00,203.0,11.08,208.0,12.51,12.41,47.59359,-54.27349
2023-01-14 16:44:00+00:00,205.0,10.77,205.0,12.53,12.41,47.59359,-54.27349
2023-01-14 16:54:00+00:00,207.0,10.34,208.0,11.14,12.41,47.59359,-54.27349
2023-01-14 17:04:00+00:00,208.0,10.31,202.0,11.64,12.41,47.59359,-54.27349
2023-01-14 17:14:00+00:00,211.0,10.94,230.0,14.09,12.41,47.59359,-54.27349
2023-01-14 17:24:00+00:00,212.0,9.98,201.0,11.85,12.41,47.59359,-54.27349
2023-01-14 17:34:00+00:00,216.0,11.83,223.0,15.7,12.41,47.59359,-54.27349
2023-01-14 17:44:00+00:00,210.0,11.42,217.0,13.79,12.41,47.59359,-54.27349
2023-01-14 17:54:00+00:00,210.0,10.76,212.0,12.98,12.41,47.59359,-54.27349
2023-01-14 18:04:00+00:00,206.0,9.77,204.0,11.9,12.41,47.59359,-54.27349
2023-01-14 18:14:00+00:00,206.0,9.89,212.0,12.06,12.33,47.59359,-54.27349
2023-01-14 18:24:00+00:00,207.0,9.22,213.0,10.91,12.33,47.59359,-54.27349
2023-01-14 18:34:00+00:00,210.0,9.22,215.0,10.57,12.33,47.59359,-54.27349
2023-01-14 18:44:00+00:00,211.0,8.86,208.0,10.41,12.33,47.59359,-54.27349
2023-01-14 18:54:00+00:00,212.0,9.0,218.0,10.35,12.33,47.59359,-54.27349
2023-01-14 19:04:00+00:00,214.0,9.99,214.0,11.83,12.33,47.59359,-54.27349
2023-01-14 19:14:01+00:00,217.0,9.72,217.0,12.19,12.25,47.59359,-54.27349
2023-01-14 19:24:01+00:00,220.0,10.03,219.0,13.11,12.25,47.59359,-54.27349
2023-01-14 19:34:01+00:00,217.0,8.82,217.0,9.7,12.25,47.59359,-54.27349
2023-01-14 19:44:01+00:00,216.0,8.15,212.0,9.36,12.25,47.59359,-54.27349
2023-01-14 19:54:01+00:00,215.0,7.93,215.0,9.0,12.25,47.59359,-54.27349
2023-01-14 20:04:01+00:00,231.0,10.02,245.0,15.04,12.25,47.59359,-54.27349
2023-01-14 20:14:01+00:00,229.0,10.9,237.0,16.05,12.17,47.59359,-54.27349
2023-01-14 20:24:01+00:00,229.0,11.88,238.0,15.59,12.17,47.59359,-54.27349
2023-01-14 20:34:01+00:00,231.0,10.24,239.0,14.84,12.17,47.59359,-54.27349
2023-01-14 20:44:01+00:00,235.0,11.66,240.0,15.47,12.17,47.59359,-54.27349
2023-01-14 20:54:01+00:00,235.0,12.31,238.0,15.88,12.17,47.59359,-54.27349
2023-01-14 21:04:01+00:00,230.0,15.42,228.0,18.92,12.17,47.59359,-54.27349
2023-01-14 21:14:01+00:00,231.0,13.66,233.0,16.06,12.17,47.59359,-54.27349
2023-01-14 21:24:01+00:00,232.0,12.5,241.0,15.52,12.17,47.59359,-54.27349
2023-01-14 21:34:01+00:00,227.0,12.62,240.0,16.82,12.17,47.59359,-54.27349
2023-01-14 21:44:01+00:00,228.0,14.67,227.0,18.17,12.17,47.59359,-54.27349
2023-01-14 21:54:01+00:00,226.0,14.75,223.0,16.89,12.17,47.59359,-54.27349
2023-01-14 22:04:01+00:00,227.0,13.85,230.0,17.72,12.17,47.59359,-54.27349
2023-01-14 22:14:01+00:00,224.0,14.97,227.0,17.28,12.17,47.59359,-54.27349
2023-01-14 22:24:01+00:00,222.0,12.14,232.0,15.37,12.17,47.59359,-54.27349
2023-01-14 22:34:01+00:00,223.0,13.19,228.0,17.16,12.17,47.59359,-54.27349
2023-01-14 22:44:01+00:00,231.0,14.9,226.0,17.16,12.17,47.59359,-54.27349
2023-01-14 22:54:01+00:00,231.0,12.48,235.0,15.73,12.17,47.59359,-54.27349
2023-01-14 23:04:01+00:00,228.0,14.25,227.0,17.17,12.17,47.59359,-54.27349
2023-01-14 23:14:00+00:00,226.0,15.98,228.0,18.96,12.17,47.59359,-54.27349
2023-01-14 23:24:00+00:00,230.0,14.21,226.0,17.59,12.17,47.59359,-54.27349
2023-01-14 23:34:00+00:00,229.0,14.78,224.0,17.65,12.17,47.59359,-54.27349
2023-01-14 23:44:00+00:00,225.0,11.97,233.0,16.48,12.17,47.59359,-54.27349
2023-01-14 23:54:00+00:00,226.0,10.8,232.0,13.59,12.17,47.59359,-54.27349
